[[{"header":{"parameterUnit":"m.s-1","parameterCategory":1,"la1":30.2991,"la2":30.254,"lo1":-89.0895,"lo2":-89.0444,"dy":0.0017,"dx":0.0017,"nx":28,"ny":28,"refTime":"2024-07-23T03:00:00:Z","depth":0,"parameterNumber":2,"parameterNumberName":"U-component_of_WINDS"},"data":[0,0,0,0,0,0,0,0,0,0,0,0,0,0,0,0,0,0,0,0,0,0,0,0,0,0,0,0,0,0,0,0,0,0,0,0,0,0,0,0,0,0,0,0,0,0,0,0,0,0,0,0,0,0,0,0,0,0,0.9623,0.9624,0,0.9692,0.9692,0.9693,0.9722,0.9722,0.9721,0.9721,0.9795,0.9797,0.9799,0,0,0,0,0,0,0,0,0,0,0,0,0,0.952,0.9521,0.9623,0.9624,0.9625,0.9691,0.9692,0.9693,0.9722,0.9722,0.9721,0.9721,0.9794,0.9797,0.9799,0,0,0,0,0,0,0,0,0,0,0,0,0,0.9574,0.9522,0.9623,0.9647,0.965,0.9691,0.9692,0.9694,0.9722,0.9722,0.9721,0.9721,0.9793,0.9796,0.98,0.9823,0,0,0.9809,0.9811,0,0,0,0,0,0,0,0,0.9571,0.9578,0.9643,0.9645,0.9649,0.9698,0.9683,0.9737,0.9722,0.9695,0.9721,0.9721,0.9763,0.9769,0.9782,0.9827,0.983,0.9809,0.9811,0.9813,0.9814,0,0,0,0,0,0,0,0.9567,0.9575,0.965,0.9644,0.9647,0.9655,0.9663,0.9693,0.9729,0.9697,0.9699,0.9707,0.9765,0.9779,0.9784,0.9831,0.9809,0.9812,0.9814,0.9815,0.9898,0.9898,0,0,0,0,0,0,0.9559,0.9572,0.9648,0.9652,0.9608,0.9657,0.9666,0.9682,0.9729,0.9736,0.9707,0.9708,0.9774,0.978,0.9787,0.9817,0.9813,0.9816,0.9817,0.9897,0.9898,0.9898,0,0,0,0,0,0,0.9557,0.9565,0.9645,0.9613,0.9623,0.9659,0.9678,0.9684,0.9698,0.9736,0.9743,0.9715,0.9774,0.9782,0.9813,0.982,0.9817,0.982,0.9897,0.9897,0.9898,0.9878,0,0,0,0,0,0,0.9553,0.9564,0.9573,0.9613,0.9625,0.967,0.9678,0.9685,0.9703,0.9705,0.9746,0.9752,0.9774,0.9809,0.9817,0.9824,0.9822,0.9897,0.9897,0.9898,0.9878,0.9878,0.9877,0,0,0,0,0,0.955,0.9566,0.9574,0.9583,0.9637,0.9671,0.9678,0.9702,0.9703,0.9713,0.9737,0.9751,0.9818,0.9812,0.9821,0.9829,0.9896,0.9897,0.9898,0.9878,0.9878,0.9877,0,0,0,0,0,0,0.9528,0.9572,0.9581,0.961,0.9636,0.9675,0.9688,0.9701,0.9728,0.9729,0.9758,0.9767,0.9796,0.9816,0.9808,0.9854,0.9858,0.9861,0.984,0.984,0.984,0.9834,0.9825,0,0,0,0,0,0.9527,0.955,0.9587,0.9609,0.9622,0.9652,0.9668,0.9684,0.9713,0.9725,0.9752,0.978,0.9807,0.9825,0.9852,0.9881,0.989,0.9891,0.9891,0.989,0.9892,0.9908,0.9909,0.99,0.99,0.99,0,0,0.9525,0.9551,0.9564,0.9606,0.9628,0.9651,0.9662,0.9687,0.9705,0.9729,0.976,0.978,0.9814,0.9843,0.9858,0.9861,0.9896,0.9891,0.989,0.9893,0.9909,0.991,0.9911,0.9901,0.9901,0.99,0,0,0.9532,0.9554,0.9575,0.9597,0.9629,0.9649,0.9654,0.9691,0.9705,0.9736,0.9754,0.9777,0.9823,0.9846,0.9864,0.9878,0.9891,0.9886,0.9884,0.9899,0.99,0.99,0.9905,0.9907,0.9888,0.9888,0.9888,0,0.9525,0.9561,0.9585,0.9608,0.9626,0.9647,0.9668,0.9688,0.9729,0.9741,0.9743,0.9801,0.9825,0.986,0.9863,0.9877,0.9883,0.9882,0.9897,0.9898,0.99,0.9905,0.9906,0.9887,0.9887,0.9887,0.9887,0,0.9551,0.9575,0.9588,0.9625,0.9644,0.9666,0.9693,0.971,0.9724,0.9744,0.9775,0.9804,0.9837,0.9847,0.9861,0.9883,0.9884,0.9891,0.9896,0.9899,0.9904,0.9906,0.9886,0.9886,0.9886,0.9886,0,0,0.9548,0.9596,0.9601,0.9617,0.9654,0.9674,0.9697,0.9728,0.9741,0.9768,0.9788,0.9826,0.9833,0.9853,0.987,0.9883,0.9892,0.9889,0.989,0.9889,0.9918,0.9912,0.9914,0.9901,0.9901,0.9902,0.9915,0,0.9561,0.9602,0.9623,0.9656,0.9678,0.9698,0.9718,0.9743,0.9762,0.9784,0.9806,0.9832,0.9838,0.985,0.9864,0.9888,0.9898,0.9887,0.992,0.9921,0.9911,0.9917,0.9911,0.9922,0.9917,0.9917,0.9918,0,0.9582,0.9606,0.964,0.9673,0.9684,0.9701,0.9731,0.9752,0.978,0.9793,0.9814,0.9831,0.9856,0.9858,0.9893,0.9885,0.99,0.9913,0.9914,0.9919,0.992,0.9921,0.9927,0.9928,0.9921,0.9921,0.9921,0,0.9576,0.9618,0.9643,0.9657,0.9697,0.9708,0.9725,0.9754,0.977,0.9796,0.9808,0.9837,0.9853,0.9875,0.9899,0.9898,0.9931,0.9935,0.9943,0.9942,0.995,0.9949,0.9958,0.9959,0.9959,0.9959,0.9959,0,0.9588,0.9608,0.9641,0.9657,0.968,0.9704,0.9726,0.9745,0.977,0.979,0.9809,0.9828,0.9858,0.988,0.9899,0.9925,0.9932,0.9944,0.9948,0.9942,0.9941,0.9953,0.9952,0.9959,0.9959,0.9959,0.9959,0,0.9586,0.9609,0.9638,0.9672,0.9681,0.9697,0.9726,0.9742,0.9761,0.9787,0.9794,0.9824,0.9851,0.9877,0.9914,0.9926,0.9953,0.9959,0.9943,0.9945,0.9951,0.995,0.9968,0.9972,0.997,0.997,0.997,0,0.9592,0.9608,0.9643,0.9657,0.9673,0.9696,0.9713,0.9737,0.9754,0.9786,0.9799,0.9827,0.9851,0.9893,0.9919,0.9947,0.9954,0.9959,0.9959,0.9951,0.9954,0.9953,0.9955,0.9958,0.9958,0.9958,0.9958,0,0.96,0.9611,0.9634,0.966,0.9679,0.9701,0.9725,0.9735,0.9764,0.9782,0.9809,0.9827,0.9864,0.9892,0.9922,0.9941,0.9954,0.9957,0.9961,0.9955,0.9944,0.995,0.9941,0.9957,0.9957,0.9957,0.9957,0.9957,0.9603,0.9617,0.9644,0.9668,0.9688,0.9709,0.9725,0.9745,0.9768,0.9799,0.9812,0.9839,0.9867,0.9909,0.9927,0.9949,0.9952,0.9957,0.9958,0.9959,0.9958,0.994,0.9955,0.9955,0.9955,0.9955,0.9955,0,0.9612,0.963,0.9652,0.9683,0.9702,0.9712,0.9737,0.9753,0.9776,0.98,0.9823,0.9854,0.988,0.9907,0.9936,0.9948,0.9955,0.9955,0.9954,0.9958,0.9954,0.9948,0.9948,0.9948,0.9948,0.9948,0.9948,0.9948,0.9619,0.9644,0.9657,0.9691,0.9709,0.9735,0.9749,0.9768,0.9787,0.9821,0.9842,0.9859,0.9884,0.9914,0.9939,0.9946,0.9956,0.9954,0.9963,0.9958,0.9959,0.9959,0.9954,0.9956,0.9956,0.9966,0.9966,0.9966]},{"header":{"parameterUnit":"m.s-1","parameterCategory":1,"la1":30.2991,"la2":30.254,"lo1":-89.0895,"lo2":-89.0444,"dy":0.0017,"dx":0.0017,"nx":28,"ny":28,"refTime":"2024-07-23T03:00:00:Z","depth":0,"parameterNumber":3,"parameterNumberName":"V-component_of_WINDS"},"data":[0,0,0,0,0,0,0,0,0,0,0,0,0,0,0,0,0,0,0,0,0,0,0,0,0,0,0,0,0,0,0,0,0,0,0,0,0,0,0,0,0,0,0,0,0,0,0,0,0,0,0,0,0,0,0,0,0,0,3.7458,3.7459,0,3.7498,3.7499,3.7499,3.7522,3.7522,3.7522,3.7522,3.756,3.7561,3.7562,0,0,0,0,0,0,0,0,0,0,0,0,0,3.7397,3.7398,3.7458,3.7459,3.7459,3.7498,3.7499,3.7499,3.7522,3.7522,3.7522,3.7522,3.756,3.7561,3.7562,0,0,0,0,0,0,0,0,0,0,0,0,0,3.7429,3.7398,3.7458,3.7475,3.7477,3.7498,3.7499,3.75,3.7522,3.7522,3.7522,3.7522,3.7559,3.7561,3.7562,3.7568,0,0,3.7566,3.7567,0,0,0,0,0,0,0,0,3.7427,3.7431,3.7472,3.7474,3.7476,3.7505,3.7491,3.7522,3.7522,3.7505,3.7522,3.7522,3.7541,3.7544,3.7551,3.757,3.7572,3.7566,3.7567,3.7568,3.7568,0,0,0,0,0,0,0,3.7425,3.7429,3.7474,3.7473,3.7475,3.7479,3.7484,3.7497,3.7522,3.7506,3.7508,3.7513,3.7543,3.755,3.7553,3.7572,3.7566,3.7568,3.7568,3.7569,3.7596,3.7596,0,0,0,0,0,0,3.742,3.7427,3.7473,3.7475,3.7452,3.748,3.7486,3.7496,3.7522,3.7526,3.7513,3.7514,3.7548,3.7551,3.7554,3.7562,3.7568,3.7569,3.757,3.7596,3.7596,3.7596,0,0,0,0,0,0,3.7419,3.7424,3.7471,3.7452,3.7458,3.7481,3.7493,3.7497,3.7504,3.7527,3.7531,3.7516,3.7548,3.7552,3.7564,3.7564,3.757,3.7571,3.7596,3.7596,3.7596,3.7579,0,0,0,0,0,0,3.7417,3.7423,3.7427,3.7452,3.7459,3.7482,3.7493,3.7497,3.7507,3.7509,3.7531,3.7535,3.7548,3.7562,3.7566,3.7566,3.7572,3.7597,3.7596,3.7596,3.758,3.7578,3.7577,0,0,0,0,0,3.7415,3.742,3.7427,3.7433,3.7464,3.7482,3.7486,3.7503,3.7507,3.751,3.7524,3.7534,3.7563,3.7563,3.7567,3.7568,3.7597,3.7596,3.7596,3.758,3.7579,3.7577,0,0,0,0,0,0,3.7394,3.7424,3.7432,3.7446,3.7462,3.7486,3.7491,3.7501,3.7514,3.7515,3.7534,3.7539,3.7549,3.756,3.7559,3.7575,3.7581,3.7581,3.7568,3.7566,3.7565,3.7562,3.7573,0,0,0,0,0,3.7392,3.7405,3.7429,3.7439,3.7447,3.7467,3.7476,3.7487,3.7503,3.751,3.7525,3.7539,3.7552,3.7559,3.7572,3.7581,3.7586,3.7584,3.7582,3.7581,3.7581,3.7586,3.7585,3.7595,3.7595,3.7595,0,0,3.7386,3.7404,3.7411,3.7436,3.7449,3.7461,3.7473,3.7485,3.7493,3.7511,3.7524,3.7535,3.7553,3.7563,3.7569,3.7572,3.7579,3.7581,3.758,3.758,3.7585,3.7584,3.7583,3.7595,3.7595,3.7595,0,0,3.7382,3.7397,3.7407,3.742,3.744,3.7453,3.7455,3.7478,3.7486,3.75,3.7513,3.7522,3.7544,3.7555,3.7564,3.7562,3.7571,3.7566,3.7559,3.7563,3.7562,3.7561,3.756,3.7559,3.7566,3.7566,3.7566,0,3.7372,3.7392,3.741,3.7421,3.7431,3.7448,3.7457,3.7469,3.7491,3.7497,3.7501,3.7527,3.754,3.7553,3.7553,3.7559,3.7561,3.7563,3.7561,3.756,3.756,3.7559,3.7558,3.7565,3.7565,3.7565,3.7565,0,3.7378,3.7391,3.7396,3.7419,3.7429,3.7439,3.7457,3.7465,3.7475,3.7487,3.75,3.7516,3.7531,3.7535,3.7545,3.7549,3.7551,3.7557,3.7564,3.7558,3.7557,3.7557,3.7564,3.7564,3.7564,3.7564,0,0,3.7363,3.7395,3.7396,3.7406,3.7429,3.7439,3.7448,3.7465,3.7471,3.7485,3.7493,3.751,3.7516,3.7526,3.7537,3.754,3.7537,3.7547,3.7547,3.7544,3.7541,3.7536,3.7535,3.7543,3.7543,3.7543,3.754,0,3.7362,3.7382,3.7398,3.7411,3.7423,3.7438,3.7447,3.7461,3.7472,3.7482,3.7495,3.7506,3.7514,3.752,3.7524,3.7537,3.7537,3.7537,3.7549,3.755,3.7545,3.7535,3.753,3.7526,3.754,3.7539,3.7539,0,3.7364,3.7378,3.7393,3.7413,3.7419,3.7426,3.7442,3.7452,3.7467,3.7475,3.7485,3.7496,3.7506,3.7511,3.7524,3.7524,3.753,3.7536,3.7537,3.7538,3.7544,3.7536,3.7525,3.7524,3.7539,3.7539,3.7539,0,3.7351,3.7374,3.7385,3.7393,3.7417,3.7422,3.7432,3.7448,3.7456,3.7469,3.7474,3.7488,3.7495,3.7504,3.7518,3.7521,3.7529,3.7536,3.7535,3.7534,3.7536,3.7535,3.7525,3.754,3.754,3.754,3.754,0,3.7348,3.7356,3.738,3.7387,3.7396,3.7413,3.7421,3.7432,3.7446,3.7454,3.7468,3.7475,3.7493,3.7502,3.7513,3.7521,3.7525,3.753,3.7533,3.7529,3.7528,3.7533,3.7533,3.754,3.754,3.754,3.754,0,3.7335,3.7351,3.7365,3.7386,3.7392,3.7398,3.7415,3.7422,3.7434,3.7444,3.7447,3.7465,3.7476,3.7491,3.7507,3.7514,3.7521,3.7525,3.7516,3.7517,3.7515,3.7515,3.7507,3.7507,3.7522,3.7522,3.7522,0,3.7332,3.7339,3.7361,3.7368,3.7378,3.7389,3.7397,3.7414,3.7421,3.7439,3.7443,3.7455,3.7466,3.7483,3.7497,3.7508,3.7513,3.7509,3.7515,3.751,3.7512,3.7511,3.7512,3.7508,3.7508,3.7508,3.7507,0,3.7325,3.7332,3.7345,3.7359,3.7369,3.7381,3.7393,3.7398,3.7416,3.7424,3.7436,3.7445,3.746,3.7472,3.7485,3.7494,3.7503,3.7506,3.7506,3.7502,3.7496,3.7498,3.7512,3.7506,3.7506,3.7506,3.7506,3.7506,3.7317,3.7323,3.7339,3.7352,3.7363,3.7374,3.7381,3.7393,3.7404,3.7418,3.7427,3.7438,3.7452,3.7471,3.7479,3.7487,3.7491,3.7491,3.7491,3.7491,3.7489,3.7495,3.7489,3.749,3.749,3.749,3.749,0,3.731,3.7321,3.7332,3.7349,3.7358,3.7367,3.738,3.7387,3.7397,3.741,3.742,3.7433,3.7444,3.7458,3.7469,3.7473,3.7477,3.7475,3.7475,3.7477,3.7486,3.7484,3.7472,3.7472,3.7472,3.7472,3.7472,3.7472,3.7307,3.7318,3.7327,3.7342,3.7353,3.7364,3.7371,3.7381,3.7391,3.7405,3.7414,3.7423,3.7436,3.7448,3.7458,3.7462,3.7465,3.7462,3.7467,3.7475,3.7476,3.7478,3.7476,3.7462,3.7462,3.7457,3.7457,3.7457]}]]